Location: Warner Observatory
(35.1353°N, 89.5455°W)
Time: 05:23:21
(UTC-06:00)

Envisat - Pass Details

Date: 25 January 2020
Orbit: 764 x 766 km, 98.1° (Epoch: 25 February)

Event Time Altitude Azimuth Distance (km) Brightness Sun altitude
Rises 18:05:17 0° 174° (S) 3,216 6.4 -9.7°
Reaches altitude 10° 18:07:36 10° 177° (S) 2,294 5.6 -10.2°
Maximum altitude 18:12:37 65° 259° (W) 842 3.5 -11.2°
Drops below altitude 10° 18:17:40 10° 341° (NNW) 2,308 5.5 -12.2°
Sets 18:20:00 0° 344° (NNW) 3,238 6.3 -12.6°
